Location: Nebel
(54.6502°N, 8.3475°E)
Time: 23:07:25
(UTC+01:00)

Envisat - Pass Details

Date: 08 December 2022
Orbit: 763 x 765 km, 98.2° (Epoch: 01 February)

Event Time Altitude Azimuth Distance (km) Brightness Sun altitude
Rises 16:52:59 0° 205° (SSW) 3,223 7.3 -6.9°
Reaches altitude 10° 16:55:48 10° 221° (SW) 2,302 6.9 -7.3°
Maximum altitude 16:59:40 22° 271° (W) 1,652 5.6 -7.8°
Drops below altitude 10° 17:03:33 10° 321° (NW) 2,316 5.6 -8.3°
Sets 17:06:24 0° 337° (NNW) 3,248 6.2 -8.6°
